{"data":{"norad_id":66716,"intl_designator":"2025-276BC","name":"FLOCK 4H-13","alt_names":[],"object_type":"PAYLOAD","status":"ACTIVE","operator":null,"country":"US","launch_date":"2025-11-28","launch_site_code":"AFWTR","launch_vehicle":null,"mission":null,"orbit_class":"UNKNOWN","rcs_meters":null,"size_class":null,"mass_kg":null,"dimensions":null,"purposes":["earth_obs"],"wikipedia_slug":null,"has_3d_model":false,"image_url":null,"decayed_at":null,"tle_current":{"epoch":"2026-09-20T03:43:10.550208Z","epoch_age_seconds":48003,"freshness":"FRESH","line1":"1 66716U 25276BC  26263.15498322  .00004485  00000+0  20182-3 0  9997","line2":"2 66716  97.4144 335.5841 0001194  49.9225 310.2116 15.21599788 44874","mean_motion":15.21599788,"eccentricity":0.0001194,"inclination_deg":97.4144,"raan_deg":335.5841,"arg_perigee_deg":49.9225,"mean_anomaly_deg":310.2116,"bstar":0.00020182,"rev_number":4487,"period_min":94.637237160288,"perigee_km":500.19325415911,"apogee_km":501.83599556713,"semimajor_km":6879.1516248631,"source":"CELESTRAK","updated_at":"2026-09-20T09:00:34.749956Z"}}}